User: anonymous   Login
Location: Deer Path Park
(40.5570°N, 74.8450°W)
Time: 13:09:39
(UTC-05:00)
Language:

Iridium 49 - Orbit

View from above orbital plane
View from above orbital plane
View from above satellite
View from above satellite

Ground track
Ground track

The orbit data is extracted from the following two-line orbital elements,

1 25108U 97082E   17021.40663700  .00000162  00000-0  50938-4 0  9997
2 25108  86.3980 316.7738 0002204  86.6887  52.4135 14.34215281999332
Epoch (UTC): 21 January 2017 09:45:33
Eccentricity: 0.0002204
inclination: 86.3980°
perigee height: 776 km
apogee height: 779 km
right ascension of ascending node: 316.7738°
argument of perigee: 86.6887°
revolutions per day: 14.34215281
mean anomaly at epoch: 52.4135°
orbit number at epoch: 99933

The dashed part of the orbit path shows where the satellite is in the earth's shadow,  

DLR